Weather History for Douglas, WY

Change the Weather History Date:

Friday, March 29, 2013

  Actual Average Record
Temperature  
Mean Temperature 48 °F 39 °F  
Max Temperature 67 °F 53 °F 67 °F (2013)
Min Temperature 28 °F 26 °F 8 °F (2003)
Degree Days  
Heating Degree Days 17 26  
Month to date heating degree days 867 866  
Since 1 July heating degree days 5898 6266  
Cooling Degree Days 0 0  
Month to date cooling degree days 0 0  
Year to date cooling degree days 0 0  
Moisture  
Dew Point 23 °F    
Average Humidity 50    
Maximum Humidity 85    
Minimum Humidity 14    
Precipitation  
Precipitation T in 0.04 in 0.21 in (1991)
Month to date precipitation 0.09 0.79  
Year to date precipitation 0.58 1.58  
Sea Level Pressure  
Sea Level Pressure 30.03 in    
Wind  
Wind Speed 9 mph (NW)    
Max Wind Speed 32 mph    
Max Gust Speed 40 mph    
Visibility 10 miles    
Events Rain    
T = Trace of Precipitation, MM = Missing Value Source: NWS Daily Summary

Daily Weather History Graph

Daily Weather History Graph

Search for Another Location

Airport:

Trip Planner

Search our weather history database for the weather conditions in past years. The results will help you decide how hot, cold, wet, or windy it might be!

Date:

Astronomy

Mar. 29, 2013 Rise Set
Actual Time 6:48 AM MDT 7:24 PM MDT
Civil Twilight 6:19 AM MDT 7:53 PM MDT
Nautical Twilight 5:46 AM MDT 8:26 PM MDT
Astronomical Twilight 5:11 AM MDT 9:01 PM MDT
Moon 10:32 PM MDT (3/29) 7:55 AM MDT (3/29)
Length of Visible Light 13h 33m
Length of Day
12h 36m
Waning Gibbous, 93% of the Moon is Illuminated
Mar 29
Waning Gibbous
Apr 2
Last Quarter
Apr 10
New
Apr 18
First Quarter
Apr 25
Full

Hourly Weather History & Observations

Time (MDT) Temp. Windchill Dew Point Humidity Pressure Visibility Wind Dir Wind Speed Gust Speed Precip Events Conditions
12:53 AM 34.0 °F - 18.0 °F 52% 30.06 in 10.0 mi Calm Calm - N/A   Mostly Cloudy
1:53 AM 32.0 °F 28.7 °F 19.0 °F 59% 30.06 in 10.0 mi NNW 3.5 mph - N/A   Clear
2:53 AM 32.0 °F 28.7 °F 19.0 °F 59% 30.03 in 10.0 mi East 3.5 mph - N/A   Clear
3:53 AM 30.9 °F 24.3 °F 19.0 °F 61% 30.02 in 10.0 mi East 6.9 mph - N/A   Clear
4:53 AM 30.9 °F 27.5 °F 21.0 °F 67% 30.04 in 10.0 mi East 3.5 mph - N/A   Overcast
5:53 AM 32.0 °F - 21.0 °F 64% 30.04 in 10.0 mi Calm Calm - N/A   Mostly Cloudy
6:53 AM 32.0 °F - 21.0 °F 64% 30.05 in 10.0 mi Calm Calm - N/A   Overcast
7:53 AM 36.0 °F - 23.0 °F 59% 30.09 in 10.0 mi Calm Calm - N/A   Mostly Cloudy
8:53 AM 42.1 °F 40.2 °F 24.1 °F 49% 30.09 in 10.0 mi NW 3.5 mph - N/A   Overcast
9:53 AM 48.9 °F - 26.1 °F 41% 30.06 in 10.0 mi WNW 4.6 mph - N/A   Overcast
10:53 AM 57.9 °F - 28.0 °F 32% 30.04 in 10.0 mi West 25.3 mph 28.8 mph N/A   Partly Cloudy
11:53 AM 61.0 °F - 25.0 °F 25% 30.01 in 10.0 mi WNW 20.7 mph 28.8 mph N/A   Partly Cloudy
12:53 PM 64.0 °F - 23.0 °F 21% 30.00 in 10.0 mi WNW 20.7 mph 29.9 mph N/A   Clear
1:53 PM 66.0 °F - 19.9 °F 17% 29.98 in 10.0 mi WNW 21.9 mph 33.4 mph N/A   Clear
2:53 PM 66.0 °F - 17.1 °F 15% 29.96 in 10.0 mi NW 16.1 mph 29.9 mph N/A   Scattered Clouds
3:53 PM 66.0 °F - 16.0 °F 15% 29.96 in 10.0 mi NW 20.7 mph 27.6 mph N/A   Scattered Clouds
4:53 PM 64.9 °F - 17.1 °F 16% 29.96 in 10.0 mi NNW 13.8 mph 24.2 mph N/A   Partly Cloudy
5:53 PM 61.0 °F - 17.1 °F 18% 29.97 in 10.0 mi NW 9.2 mph - N/A   Overcast
6:53 PM 59.0 °F - 17.1 °F 20% 29.99 in 10.0 mi North 10.4 mph - N/A   Overcast
7:53 PM 54.0 °F - 19.0 °F 25% 30.01 in 10.0 mi North 5.8 mph - N/A   Overcast
8:53 PM 48.0 °F - 37.0 °F 66% 30.10 in 9.0 mi West 25.3 mph 36.8 mph 0.00 in Rain Light Rain
9:53 PM 43.0 °F - 37.0 °F 80% 30.09 in 10.0 mi Calm Calm - 0.00 in   Partly Cloudy
10:53 PM 41.0 °F - 35.1 °F 79% 30.06 in 10.0 mi Calm Calm - N/A   Clear
11:53 PM 37.0 °F - 33.1 °F 86% 30.06 in 10.0 mi Calm Calm - N/A   Partly Cloudy